Temperature
17 17 17 17 15 13 14 16 17 19 20 22 22 22 20 20 20 20 19 19 18 17 16 15 15 15 15 15 14 14 14 14 14 13 13 13 13 13 13 13 12 12 12 12 12 12 12 12 12
17 17 17 16 13 14 14 16 18 19 21 22 22 21 19 19 20 20 19 18 18 17 16 15 15 15 15 14 14 14 14 14 13 13 13 13 13 12 12 12 12 12 12 12 12 12 12 12 12
17 17 17 14 13 14 16 17 18 20 22 22 22 21 21 20 20 20 20 18 17 17 16 16 15 15 15 14 14 14 14 13 13 13 13 12 12 12 12 12 12 12 12 12 12 12 12 12 12
17 17 16 13 14 15 16 18 18 19 21 22 21 19 20 20 21 21 20 18 17 17 16 15 15 15 14 14 14 14 13 13 13 13 12 12 12 12 12 11 11 11 11 11 12 12 12 12 12
16 16 14 13 14 16 16 18 19 19 20 21 21 18 19 20 20 20 20 18 18 17 16 15 15 14 14 14 14 14 13 13 13 12 12 12 12 12 12 11 11 11 11 11 11 12 12 12 12
16 14 13 14 15 16 17 19 19 18 19 21 20 18 18 19 20 20 19 18 18 17 16 15 14 14 14 14 14 13 13 13 12 12 12 12 12 12 11 11 11 11 11 11 12 12 12 12 11
15 12 13 14 15 16 18 20 19 18 18 21 21 17 17 18 19 19 19 18 17 16 15 15 14 14 14 13 13 13 13 12 12 12 12 12 12 11 11 11 11 11 11 11 12 12 12 12 11
16 13 14 14 15 16 18 20 21 20 20 22 22 17 17 18 18 18 17 17 16 16 15 15 14 14 13 13 13 13 13 12 12 12 12 12 12 12 12 11 11 11 11 11 11 11 11 11 11
15 13 13 14 15 16 18 19 21 21 21 21 21 22 22 19 17 16 16 15 15 15 15 15 14 14 14 13 13 13 13 13 12 12 12 12 12 11 11 11 11 11 11 11 11 11 11 11 11
14 13 14 15 16 17 18 19 20 20 19 19 20 21 20 18 17 16 16 15 15 15 15 15 14 14 13 13 13 13 13 13 12 12 12 12 12 11 11 11 11 11 11 11 11 11 11 11 11
13 13 15 16 17 18 18 18 19 19 18 19 20 20 19 18 17 17 17 17 17 16 15 15 14 14 14 13 13 13 13 13 12 12 12 12 12 11 11 11 11 11 11 11 11 11 11 11 11
13 14 15 16 17 18 18 18 19 19 20 21 22 22 19 18 17 17 17 17 17 16 16 15 14 14 14 14 13 13 13 13 12 12 12 12 12 11 11 11 11 11 11 11 11 11 11 11 10
13 14 15 16 17 17 17 17 18 19 20 21 21 20 19 19 19 18 18 17 17 16 16 15 15 14 14 14 13 13 13 13 12 12 12 12 12 11 11 11 11 11 11 11 11 11 11 10 10
13 14 15 16 16 17 17 17 17 18 20 20 19 19 19 19 19 18 17 17 17 17 16 16 15 15 14 14 14 13 13 13 12 12 12 12 12 12 11 11 11 11 11 11 11 10 10 10 10
13 13 13 14 15 16 16 16 16 19 19 19 18 19 19 19 19 18 18 18 18 17 17 16 15 15 14 14 14 13 13 13 13 12 12 12 12 12 11 11 11 11 11 11 10 10 10 10 10
12 12 12 14 14 15 15 14 16 19 18 18 18 18 18 18 19 19 19 19 18 18 17 16 15 15 15 14 14 14 13 13 13 13 12 12 12 12 11 11 11 11 11 11 11 10 10 10 10
11 11 12 13 14 15 14 14 16 18 18 17 18 18 18 18 18 19 19 19 18 18 17 16 16 15 15 14 14 14 13 13 13 13 12 12 12 12 11 11 11 11 11 11 11 10 10 10 10
10 10 11 12 14 14 14 14 15 17 17 17 18 18 18 18 19 19 19 19 18 18 18 17 16 16 15 14 14 13 13 13 13 13 13 12 12 12 12 11 11 11 11 11 11 10 10 10 10
11 11 11 12 14 14 13 14 15 16 16 16 17 17 18 18 20 19 19 19 18 18 17 17 16 16 15 14 14 13 13 13 13 13 13 12 12 12 12 12 11 11 11 11 11 10 10 10 10
10 10 11 12 13 13 13 13 14 15 15 16 17 17 18 18 19 19 19 19 18 18 18 17 17 16 16 15 15 15 14 14 13 13 13 12 12 12 12 12 12 11 11 11 11 10 10 10 10
10 10 10 11 12 13 12 12 13 14 15 16 17 18 18 19 19 19 19 19 18 18 18 18 17 17 17 16 15 14 13 12 12 12 13 13 12 12 12 12 12 11 11 11 11 11 10 10 10
9 11 11 11 11 11 11 11 12 13 14 15 16 17 18 19 19 19 19 19 19 19 19 19 18 18 17 16 15 14 14 14 14 14 14 13 13 12 12 12 12 11 11 11 11 11 10 10 10
10 11 11 10 10 10 10 10 11 12 13 15 15 17 18 19 19 19 20 20 20 19 19 19 18 18 17 16 16 15 15 15 15 14 14 13 13 12 12 12 12 11 11 11 11 10 10 10 10
10 10 10 9 9 9 10 10 11 12 13 14 15 16 18 18 19 19 20 20 20 19 19 19 18 18 17 17 16 16 16 15 14 14 14 13 13 12 12 12 12 11 11 11 11 10 10 10 10
9 8 8 8 8 9 10 10 11 12 13 14 15 16 17 18 18 19 19 19 19 19 19 19 18 18 17 17 16 16 16 15 15 15 14 14 13 13 13 12 12 11 11 11 11 10 10 10 9
8 8 8 9 9 9 10 10 11 12 13 15 16 17 17 17 18 18 19 19 19 19 19 19 18 18 18 17 17 16 16 15 15 15 15 14 14 14 13 13 12 12 11 11 10 10 10 10 9
8 8 9 8 8 9 9 10 11 12 13 13 14 15 15 17 18 18 18 19 19 19 19 19 18 18 18 17 17 16 16 15 15 15 14 14 14 14 13 13 12 11 11 10 10 10 10 10 9
8 8 8 8 8 8 9 9 10 12 12 13 13 13 15 16 17 18 18 18 19 19 19 19 18 18 18 18 17 16 16 16 15 15 14 14 14 13 13 12 12 11 11 10 10 10 10 9 9
7 7 8 7 8 8 8 10 12 12 13 13 13 14 15 16 17 17 18 18 18 18 18 18 18 17 17 17 17 17 16 16 15 15 14 14 14 13 13 12 12 11 11 10 10 10 10 9 9
7 7 7 7 7 7 8 10 12 12 12 13 13 14 14 15 16 17 17 18 18 18 18 18 17 17 17 17 17 16 16 16 15 15 14 14 13 13 12 12 12 11 11 10 10 10 10 9 9
Wind_Speed
3 3 4 4 4 2 5 7 5 4 3 3 3 7 9 6 5 5 5 13 16 17 19 23 23 22 21 20 20 19 18 18 17 17 16 16 16 16 16 16 15 16 16 16 16 15 15 15 15
1 3 4 4 4 3 7 7 8 10 7 2 3 6 7 3 3 9 8 13 19 19 19 21 23 23 22 21 20 19 19 18 17 17 16 15 15 15 15 15 15 15 15 15 15 14 14 14 14
1 2 4 3 5 7 7 6 10 7 7 5 2 4 7 8 7 10 10 18 18 16 19 22 24 23 22 22 21 20 19 18 17 17 16 15 15 15 15 15 14 14 14 14 14 13 13 13 13
2 3 2 3 10 10 8 6 3 2 3 2 5 5 4 4 9 9 17 19 18 14 17 22 24 23 22 22 21 20 19 18 17 17 16 16 15 15 15 14 14 14 14 13 13 12 12 12 12
3 3 3 6 11 8 9 10 6 4 3 2 5 6 2 3 7 17 20 20 19 14 16 22 24 23 22 22 21 20 19 18 18 17 16 16 15 15 14 14 13 13 13 13 12 12 11 11 11
2 3 5 11 13 9 9 9 5 6 6 3 5 7 2 3 13 19 19 18 18 17 16 20 24 23 23 22 21 20 19 18 18 17 16 16 15 15 14 13 13 12 12 12 11 11 10 10 10
5 4 7 9 9 11 12 7 7 8 8 8 9 8 4 5 11 15 15 16 15 16 14 14 20 21 22 22 21 20 20 19 18 17 16 16 15 15 14 13 13 12 11 11 10 10 9 8 8
6 4 7 8 10 11 7 6 7 9 9 6 8 12 9 10 10 13 14 13 14 13 12 11 15 17 18 19 21 20 20 19 18 17 17 16 15 14 14 13 12 12 11 10 9 9 7 6 6
4 5 11 11 10 8 4 5 6 4 4 2 4 8 10 17 16 17 14 12 13 14 11 11 12 14 16 17 19 19 19 19 18 17 17 16 14 14 13 12 12 11 10 9 8 7 6 4 4
7 12 16 8 7 6 5 6 5 2 1 1 3 4 12 19 20 21 20 20 19 18 15 13 12 13 14 15 16 16 16 16 16 16 16 14 13 12 11 12 11 10 9 8 7 6 4 4 3
8 12 10 10 9 8 8 8 5 4 5 7 9 12 19 18 19 20 21 21 21 20 18 15 14 14 13 10 12 11 12 13 14 16 16 15 12 11 10 9 9 8 7 5 5 4 3 3 2
8 10 9 9 9 10 11 8 7 8 10 9 13 22 23 21 22 21 21 19 18 19 19 17 15 14 13 11 11 11 10 10 11 14 16 14 9 8 8 7 8 7 6 5 4 3 3 3 3
14 13 12 10 10 12 11 12 9 10 8 4 10 18 23 23 22 19 17 17 17 19 19 19 17 16 14 12 10 11 10 11 13 15 16 16 10 7 8 8 8 8 8 6 5 4 3 3 3
8 10 13 13 12 10 13 14 9 13 6 7 13 17 19 21 20 14 13 16 18 19 19 19 19 17 15 13 10 10 12 13 13 14 16 17 14 11 8 7 7 8 9 8 7 5 3 2 3
7 9 11 13 12 10 8 15 16 14 7 10 14 16 17 17 16 18 20 19 20 20 19 20 20 18 17 15 13 12 12 14 12 14 17 18 16 14 11 7 6 8 10 9 6 4 3 2 2
5 7 12 11 11 10 11 19 14 10 10 12 13 14 15 15 16 18 18 17 17 18 19 20 19 19 18 16 13 11 13 13 12 14 17 18 18 17 12 7 7 10 10 7 4 3 3 2 2
7 10 14 11 10 10 12 14 11 10 11 13 13 14 15 15 15 15 16 17 18 19 19 20 19 20 19 16 13 11 12 12 12 14 15 17 18 18 13 8 8 11 7 5 4 3 3 3 2
9 9 9 12 7 12 15 15 10 9 12 14 13 14 15 17 19 17 17 17 17 18 19 20 19 19 17 13 10 9 9 9 10 12 13 16 17 17 14 9 9 10 6 5 4 4 3 3 3
9 9 11 10 7 9 15 18 15 12 11 13 12 13 15 17 17 17 18 17 16 17 18 20 19 19 16 14 13 13 12 11 10 10 13 16 16 16 13 8 8 8 7 7 6 4 4 2 2
15 15 13 9 8 8 12 17 14 15 14 13 14 14 15 15 13 14 16 16 18 20 21 21 21 21 20 17 14 11 10 8 9 8 10 15 16 16 13 10 9 8 6 7 7 5 4 3 3
16 16 15 10 6 6 6 12 14 14 14 14 14 14 14 17 18 16 17 18 18 20 22 21 22 21 21 16 11 8 6 5 6 9 10 11 15 15 13 12 10 9 8 8 8 7 7 5 3
16 12 12 12 8 7 7 8 10 12 14 17 17 16 15 15 16 15 17 18 19 21 20 21 22 21 20 18 16 17 13 12 12 10 10 10 13 14 14 13 12 10 8 8 8 8 5 6 4
8 6 9 10 10 10 8 8 8 8 14 18 18 18 17 15 16 16 17 19 19 20 19 19 20 20 20 20 20 19 15 12 8 8 10 11 10 12 13 13 11 10 9 9 9 8 7 6 5
6 3 5 6 7 13 15 11 9 9 15 13 15 17 16 15 15 15 15 16 17 17 17 18 19 20 20 21 21 21 18 14 12 12 12 11 8 9 12 12 11 10 9 9 9 8 9 7 6
7 5 4 6 8 10 10 11 11 10 10 14 15 16 17 15 14 14 14 16 16 17 18 18 20 20 20 21 21 21 20 18 17 15 14 12 10 10 13 11 11 10 9 9 8 8 8 8 7
10 11 8 6 7 4 7 11 9 10 10 10 12 13 13 14 15 15 16 16 17 18 19 19 21 20 21 21 21 19 18 15 14 14 13 14 12 11 11 12 11 10 10 9 9 7 8 7 8
8 10 7 3 3 4 6 6 7 7 9 10 10 9 12 13 14 15 14 15 16 17 19 20 21 19 20 21 19 18 18 16 14 13 12 11 9 9 11 12 11 10 10 10 9 7 8 7 7
6 5 5 7 5 6 6 7 6 7 12 12 12 12 12 11 11 12 12 13 14 15 15 16 18 19 17 19 18 16 17 17 14 13 14 13 11 10 12 12 12 11 10 10 9 7 7 8 7
5 6 5 5 5 5 5 7 7 10 11 12 13 12 12 12 11 11 11 11 11 11 13 15 15 15 15 16 16 15 16 15 14 14 14 13 12 12 13 13 12 11 11 10 10 9 9 9 7
5 5 6 5 5 5 4 8 5 6 6 7 8 7 7 9 9 9 9 9 9 11 12 14 14 15 15 15 14 15 14 14 14 14 13 13 13 12 12 12 12 12 11 11 11 11 10 10 9
Wind_Direction
237 112 95 67 62 60 241 242 228 241 234 226 158 126 131 136 156 168 132 140 139 149 157 156 154 151 149 144 139 136 132 130 126 123 121 118 115 112 109 106 103 100 97 95 92 91 90 90 91
157 120 73 74 124 211 249 236 229 237 214 190 123 112 106 108 118 125 132 149 145 150 154 155 155 152 150 146 142 139 136 133 130 128 126 124 120 116 113 110 107 103 99 97 95 93 92 93 93
188 136 116 123 179 202 228 230 220 249 235 204 131 94 132 150 148 155 156 148 144 149 152 156 155 154 152 149 146 143 140 138 135 133 131 129 125 122 117 114 111 106 103 100 99 96 95 94 93
106 81 91 170 229 224 221 241 230 290 293 197 137 101 119 162 167 157 144 145 145 147 151 158 156 155 154 152 149 147 144 142 140 138 136 133 129 125 121 118 115 111 108 106 103 100 98 97 94
90 116 190 235 239 241 237 243 246 248 232 216 128 125 121 344 139 137 144 148 148 149 153 160 158 157 155 154 152 150 148 147 145 143 140 137 134 129 126 123 120 117 115 112 108 104 101 98 96
123 127 190 229 239 247 248 237 234 236 235 211 134 128 139 121 137 146 149 149 150 152 155 161 161 159 158 157 155 153 152 151 150 148 145 142 138 135 132 129 127 124 120 116 111 107 103 98 94
164 170 216 224 240 250 247 227 216 225 225 210 154 132 145 163 154 146 145 145 148 152 155 158 161 160 161 159 158 156 156 155 153 151 148 145 142 140 138 135 133 129 125 121 117 113 108 101 93
173 178 225 223 227 242 238 218 221 208 221 200 147 150 177 190 152 135 136 142 148 154 157 156 157 158 159 160 160 159 159 158 156 152 148 146 145 144 143 141 138 136 132 128 125 121 115 102 89
154 202 225 217 216 235 241 233 251 227 182 164 171 179 177 151 140 136 139 146 156 162 163 159 156 157 157 160 163 161 161 160 157 152 150 146 145 146 147 149 147 145 141 139 136 132 123 104 85
183 220 227 220 214 234 260 247 250 263 231 154 67 80 132 146 151 155 160 165 169 172 171 167 162 161 159 164 162 162 161 161 157 156 153 151 151 152 156 160 157 155 153 151 149 145 129 111 84
199 223 230 236 243 253 266 267 254 203 233 208 178 157 151 158 162 167 171 173 175 173 173 173 169 166 165 162 161 162 160 161 161 163 160 159 159 161 162 162 165 163 163 158 156 146 134 132 128
229 239 226 231 238 247 254 259 264 230 229 218 180 162 161 168 174 177 177 177 173 173 177 175 173 171 171 165 166 167 166 168 171 173 169 165 165 167 169 169 170 169 170 166 163 161 158 157 164
237 246 249 246 241 240 250 251 250 253 250 205 164 164 170 176 182 184 180 175 172 176 178 177 176 176 175 168 172 175 176 179 179 177 177 174 170 172 174 177 177 180 178 173 170 169 161 160 162
238 244 251 252 250 248 246 255 248 250 226 175 170 178 184 185 184 178 176 178 180 181 180 178 179 178 176 176 177 178 181 182 181 181 182 180 177 174 175 176 179 183 182 178 176 174 165 161 153
249 253 261 249 240 238 242 258 244 242 205 188 189 190 193 196 187 186 186 184 184 183 180 180 181 179 179 179 180 180 182 182 184 186 187 184 180 177 176 174 178 185 183 174 167 162 151 141 140
233 234 244 243 224 224 212 246 246 234 207 207 203 198 199 201 198 196 192 187 184 181 180 182 182 181 181 181 181 181 182 182 185 186 187 187 183 178 174 175 182 183 175 167 157 156 146 155 158
216 225 231 244 217 207 212 242 245 227 214 216 210 205 203 206 207 204 198 192 187 185 182 182 183 182 183 181 179 178 180 184 186 186 186 188 185 181 177 178 180 176 169 167 171 164 160 169 179
213 217 226 226 219 208 225 239 243 236 218 222 216 211 209 207 210 205 201 196 191 188 185 184 184 183 181 177 173 174 178 184 186 188 188 186 186 183 179 177 178 173 168 174 172 167 163 168 173
242 236 239 239 230 219 233 242 242 238 233 233 227 216 215 216 212 206 203 196 190 189 187 187 185 182 179 180 182 183 188 187 188 190 189 186 186 184 180 178 176 175 180 182 174 162 165 172 146
246 248 250 262 249 236 244 250 248 238 231 228 227 223 217 218 214 206 203 196 192 190 190 190 188 185 185 188 188 187 182 183 186 185 189 190 187 186 186 180 182 180 178 177 179 165 161 174 161
237 236 237 245 274 256 258 263 250 245 236 234 228 224 218 213 211 206 201 198 194 193 192 192 191 188 189 183 172 160 153 155 178 191 194 194 190 189 187 185 182 182 180 187 188 179 171 181 194
239 237 237 241 241 245 218 255 249 233 236 234 230 225 220 216 212 207 202 199 197 197 194 193 191 189 188 180 179 178 185 193 195 192 193 191 192 190 189 186 185 185 187 188 190 186 178 167 186
234 234 236 243 237 246 233 244 260 224 232 232 227 226 223 217 211 207 204 201 199 196 193 193 191 190 187 184 185 187 194 196 181 178 183 190 193 192 189 186 185 188 191 191 187 183 183 181 179
228 238 248 242 236 241 226 227 258 220 223 228 226 224 222 219 215 212 207 200 199 195 191 190 189 191 188 188 189 191 193 186 178 185 190 193 194 195 193 188 188 190 191 191 190 187 186 190 185
204 193 210 213 220 237 202 213 246 233 228 223 223 222 220 217 213 210 204 200 198 194 191 190 189 192 190 190 192 194 194 190 191 192 194 192 193 198 198 192 192 192 192 189 184 185 190 189 190
204 198 204 208 213 235 193 221 242 229 230 230 227 223 218 216 214 211 206 201 198 195 192 189 190 191 190 191 194 195 193 194 197 195 195 196 200 200 191 191 192 191 188 187 185 189 192 189 194
190 208 211 231 251 237 228 248 277 241 239 236 233 225 220 218 216 212 206 201 197 193 192 190 190 190 191 192 193 193 192 193 194 192 192 195 194 188 184 187 189 189 187 186 184 193 192 187 193
200 178 178 200 211 229 241 238 231 220 224 227 227 225 226 222 217 212 207 202 197 193 191 187 188 190 190 191 192 193 193 194 191 187 191 193 189 183 182 187 189 189 188 187 186 187 184 184 191
188 196 210 204 213 203 233 250 219 215 216 218 225 226 224 221 216 211 207 201 195 188 184 184 187 187 187 189 189 190 191 191 187 190 192 191 186 183 184 186 188 190 191 188 188 190 183 187 190
209 204 197 211 226 219 230 260 264 242 229 220 235 247 241 232 224 210 198 188 185 186 185 185 186 187 188 187 185 187 186 185 188 191 190 186 185 186 185 183 186 190 190 188 189 190 187 189 192
Height
1506 1507 1508 1509 1512 1519 1518 1506 1496 1491 1487 1484 1483 1482 1485 1489 1494 1499 1496 1497 1500 1503 1507 1511 1514 1517 1519 1521 1522 1524 1525 1527 1528 1529 1530 1531 1531 1532 1533 1533 1534 1534 1534 1535 1535 1535 1535 1535 1535
1505 1506 1508 1508 1516 1523 1514 1499 1492 1486 1483 1483 1483 1482 1484 1487 1488 1491 1493 1496 1500 1503 1507 1510 1514 1516 1518 1520 1522 1523 1525 1526 1527 1529 1530 1531 1532 1532 1533 1533 1534 1534 1535 1535 1535 1535 1535 1535 1536
1503 1505 1506 1508 1513 1513 1504 1490 1486 1481 1481 1481 1482 1482 1483 1485 1487 1489 1492 1495 1499 1503 1506 1509 1513 1515 1518 1520 1521 1523 1524 1526 1527 1528 1529 1531 1531 1532 1533 1533 1534 1534 1535 1535 1535 1536 1536 1536 1536
1502 1504 1504 1508 1506 1496 1490 1483 1481 1481 1480 1479 1479 1482 1484 1486 1487 1489 1492 1495 1498 1502 1505 1509 1512 1515 1517 1519 1521 1522 1524 1525 1527 1528 1529 1530 1531 1532 1533 1533 1534 1535 1535 1535 1536 1536 1536 1537 1537
1499 1500 1504 1505 1498 1488 1483 1480 1481 1481 1480 1479 1478 1481 1483 1485 1487 1489 1491 1494 1497 1501 1505 1508 1511 1514 1516 1518 1520 1522 1523 1525 1526 1527 1529 1530 1531 1532 1533 1533 1534 1535 1535 1536 1536 1536 1537 1537 1538
1497 1497 1504 1501 1492 1484 1479 1478 1480 1479 1478 1477 1477 1480 1482 1484 1486 1488 1491 1494 1497 1500 1504 1507 1510 1513 1515 1518 1520 1521 1523 1525 1526 1527 1528 1530 1531 1532 1533 1533 1534 1535 1536 1536 1536 1537 1537 1538 1538
1493 1495 1496 1492 1488 1482 1475 1475 1477 1476 1475 1474 1474 1478 1481 1483 1486 1488 1491 1494 1497 1500 1503 1506 1509 1512 1515 1517 1519 1521 1522 1524 1526 1527 1528 1530 1531 1532 1533 1534 1534 1535 1536 1536 1537 1537 1538 1539 1539
1487 1490 1489 1487 1484 1477 1471 1472 1472 1471 1471 1471 1472 1474 1477 1480 1484 1487 1491 1494 1497 1499 1502 1505 1508 1511 1513 1516 1518 1520 1522 1524 1525 1527 1528 1529 1530 1532 1533 1534 1535 1535 1536 1537 1537 1538 1539 1539 1540
1483 1487 1483 1479 1477 1472 1468 1469 1468 1468 1468 1468 1468 1469 1470 1476 1481 1486 1490 1493 1496 1498 1501 1504 1506 1509 1512 1515 1517 1519 1521 1523 1524 1526 1528 1529 1530 1532 1533 1534 1535 1536 1536 1537 1538 1538 1539 1540 1540
1477 1478 1470 1468 1468 1467 1466 1466 1466 1467 1466 1466 1466 1467 1469 1473 1477 1481 1484 1488 1491 1495 1498 1502 1505 1507 1510 1513 1516 1518 1520 1522 1523 1525 1527 1529 1530 1531 1533 1534 1535 1536 1536 1537 1538 1539 1539 1540 1540
1469 1467 1464 1464 1464 1465 1464 1464 1464 1464 1464 1462 1462 1463 1467 1470 1474 1477 1480 1483 1486 1491 1495 1499 1502 1506 1508 1511 1514 1516 1518 1520 1522 1524 1526 1528 1529 1531 1532 1533 1534 1535 1536 1537 1538 1539 1539 1540 1541
1464 1461 1461 1461 1462 1463 1462 1462 1461 1460 1460 1459 1459 1460 1462 1466 1470 1473 1476 1480 1484 1488 1492 1496 1500 1503 1506 1509 1512 1514 1516 1519 1521 1523 1525 1527 1528 1530 1531 1533 1534 1535 1536 1537 1538 1539 1539 1540 1541
1460 1458 1458 1459 1460 1460 1460 1459 1458 1456 1457 1458 1458 1458 1459 1462 1466 1470 1474 1478 1481 1485 1489 1493 1497 1500 1503 1506 1509 1512 1514 1517 1519 1521 1523 1525 1527 1529 1530 1532 1533 1534 1535 1536 1537 1538 1539 1540 1540
1456 1456 1455 1456 1456 1456 1457 1455 1456 1451 1454 1455 1456 1457 1458 1459 1463 1467 1471 1475 1478 1481 1485 1489 1493 1497 1500 1503 1506 1509 1512 1515 1517 1520 1522 1524 1526 1528 1529 1531 1532 1533 1535 1536 1537 1538 1538 1539 1540
1455 1455 1453 1451 1451 1453 1455 1453 1448 1447 1451 1452 1453 1454 1456 1457 1460 1462 1465 1469 1473 1477 1482 1486 1490 1494 1497 1500 1504 1507 1510 1513 1515 1517 1520 1522 1524 1526 1528 1529 1531 1532 1534 1535 1536 1537 1538 1538 1539
1453 1454 1453 1445 1447 1448 1456 1450 1441 1443 1446 1447 1449 1451 1452 1454 1457 1459 1462 1466 1470 1474 1478 1482 1486 1490 1493 1497 1500 1504 1507 1510 1512 1515 1517 1520 1522 1524 1526 1528 1529 1531 1532 1533 1534 1535 1536 1537 1538
1453 1452 1448 1444 1441 1443 1447 1443 1437 1439 1440 1441 1443 1445 1448 1450 1453 1456 1459 1462 1466 1469 1473 1477 1481 1485 1489 1493 1497 1501 1504 1507 1510 1512 1515 1517 1520 1522 1524 1526 1528 1529 1530 1532 1533 1534 1535 1535 1536
1448 1447 1444 1442 1437 1439 1440 1438 1435 1433 1435 1435 1437 1439 1442 1444 1446 1451 1454 1458 1462 1465 1469 1473 1477 1481 1486 1490 1494 1498 1501 1504 1507 1509 1512 1514 1517 1519 1521 1523 1525 1527 1528 1529 1531 1532 1533 1534 1535
1442 1442 1442 1438 1434 1436 1436 1434 1431 1430 1431 1431 1431 1433 1435 1437 1441 1445 1449 1453 1457 1461 1464 1468 1472 1476 1481 1485 1488 1491 1494 1498 1502 1505 1508 1511 1514 1516 1518 1520 1522 1524 1526 1527 1528 1530 1531 1532 1533
1442 1442 1440 1436 1433 1434 1434 1431 1426 1424 1424 1425 1426 1427 1429 1432 1435 1439 1443 1447 1450 1454 1458 1462 1466 1470 1474 1478 1481 1486 1490 1494 1497 1501 1504 1507 1510 1512 1515 1517 1519 1521 1523 1524 1526 1527 1528 1529 1530
1438 1439 1437 1437 1433 1431 1434 1430 1424 1418 1418 1418 1419 1420 1422 1425 1428 1431 1435 1439 1443 1447 1451 1455 1459 1464 1468 1473 1478 1483 1487 1491 1494 1496 1499 1502 1505 1508 1511 1513 1516 1517 1519 1521 1522 1523 1525 1526 1527
1434 1431 1433 1434 1438 1436 1434 1433 1421 1415 1413 1411 1411 1412 1414 1417 1421 1424 1428 1432 1436 1440 1444 1449 1453 1457 1462 1467 1471 1475 1478 1480 1484 1488 1493 1497 1500 1503 1506 1509 1511 1513 1515 1517 1518 1520 1521 1523 1523
1428 1428 1431 1432 1435 1436 1432 1432 1419 1411 1408 1403 1402 1404 1406 1410 1413 1417 1420 1424 1429 1433 1438 1442 1447 1451 1455 1460 1464 1468 1472 1476 1480 1485 1489 1492 1495 1499 1501 1504 1507 1509 1511 1513 1515 1516 1517 1519 1520
1425 1429 1430 1431 1434 1432 1425 1429 1415 1406 1398 1395 1395 1396 1399 1402 1406 1410 1414 1418 1422 1426 1431 1435 1440 1444 1449 1453 1457 1461 1465 1470 1474 1478 1482 1486 1490 1493 1496 1499 1501 1504 1506 1508 1510 1512 1513 1515 1516
1424 1430 1433 1432 1432 1423 1415 1418 1406 1394 1389 1387 1388 1388 1391 1395 1398 1402 1406 1410 1414 1418 1423 1428 1432 1437 1442 1446 1451 1455 1459 1464 1468 1472 1476 1480 1483 1486 1489 1493 1496 1498 1501 1503 1505 1507 1509 1510 1511
1419 1424 1427 1426 1422 1418 1412 1408 1395 1385 1381 1381 1381 1382 1384 1387 1390 1393 1397 1401 1406 1411 1415 1420 1425 1430 1435 1440 1444 1449 1454 1458 1462 1467 1471 1474 1477 1481 1484 1488 1491 1493 1496 1498 1500 1502 1504 1506 1507
1415 1417 1417 1421 1418 1418 1409 1399 1389 1380 1378 1377 1377 1377 1378 1379 1382 1385 1389 1394 1398 1403 1408 1413 1418 1423 1428 1433 1438 1443 1447 1452 1456 1461 1465 1469 1472 1476 1480 1483 1486 1488 1491 1493 1495 1497 1499 1501 1502
1410 1411 1415 1419 1418 1414 1405 1399 1390 1379 1375 1374 1373 1373 1372 1374 1376 1379 1382 1386 1391 1396 1401 1406 1411 1416 1421 1427 1432 1437 1441 1446 1451 1455 1459 1463 1467 1471 1474 1477 1480 1483 1486 1488 1490 1492 1494 1496 1498
1410 1411 1411 1412 1411 1410 1406 1393 1372 1370 1368 1368 1367 1367 1368 1369 1371 1373 1376 1380 1385 1390 1395 1400 1405 1410 1415 1420 1426 1431 1435 1440 1445 1449 1453 1457 1461 1465 1468 1472 1475 1478 1480 1483 1485 1487 1489 1491 1493
1407 1407 1410 1412 1410 1406 1401 1387 1364 1365 1364 1364 1365 1365 1366 1366 1367 1368 1372 1376 1380 1384 1389 1393 1399 1404 1409 1414 1419 1425 1430 1434 1438 1442 1447 1451 1455 1459 1463 1466 1469 1472 1475 1477 1480 1482 1484 1486 1487